星链-35992(STARLINK-35992)

导读 | 豆包AI

STARLINK-35992是美国SpaceX星链(Starlink)星座的成员卫星,于2025年12月2日发射升空。星链项目旨在打造全球卫星互联网星座,为全球偏远地区、网络覆盖不足区域提供高速低延迟的宽带互联网服务。该卫星延续星链标准设计,加入低轨卫星星座组网,进一步完善了星链星座的全球覆盖能力,支撑星座服务性能提升。

基本信息
目录编号:
66852
目录名称:
STARLINK-35992
国际标识:
2025-281E
轨道中心:
EARTH
卫星名称:
星链-35992
卫星全名:
星链-35992(STARLINK-35992)
卫星状态:
在轨 (已飞行102 天)
发射日期:
2025-12-02 UTC
国别 :
美国 (US)
星等 :
--
轨道信息
数据来源 国际轨道数据
星历时间: 2026-03-14T07:34:28+0800
6小时前
查看轨道信息
半长轴: 6861.079km
偏心率: 0.0000791
轨道倾角: 42.999°
近地点辐角 254.551°
升交点赤经 319.094°
平近点角 105.526°
近地点: 482.399km
远地点: 483.485km
周期: 94.265分钟
每日圈数: 15.276161
详细信息
固有亮度:
5
最大亮度:
2.5
卫星平台:
Starlink V1.0
覆盖范围:
全球
运营商:
太空探索技术公司
运营商所在国:
美国
制造商(研发单位):
太空探索技术公司
制造商所在国:
美国
使用方式:
暂无
卫星简介
Starlink 计划是 SpaceX 推出的全球卫星互联网项目,通过发射低轨道卫星,为全球尤其是偏远地区提供高速、低延迟的互联网服务。自 2019 年起,Starlink 已部署数千颗卫星,旨在缩小全球数字鸿沟,推动互联网普及。该项目还为军事、航空等行业提供通信支持,带来广泛经济效益。
2D轨道图
3D轨道图
轨道高度分析图
轨道倾角分析图
轨道综合分析图
查看轨道综合分析图